FW5955 Weather Reports


time (UTC)temp
F
wind
direction
speed
knots
gust
knots
rain 1hr
in
rain 24hr
in
rain mn
in
humidity
%
barometer
mb
20260503031550 43 287 0.0 1.7 0.00 0.01 0.00 74 1015.2
20260503030055 43 8 0.0 2.6 0.00 0.01 0.00 72 1015.3
20260503024553 44 307 0.0 5.2 0.00 0.01 0.01 70 1015.0
20260503023048 44 276 2.6 7.8 0.00 0.01 0.01 71 1015.0
20260503021547 43 246 2.6 7.0 0.00 0.01 0.01 72 1015.0
20260503020046 43 278 3.5 8.7 0.00 0.01 0.01 72 1015.1
20260503014552 43 239 3.5 9.6 0.00 0.01 0.01 73 1015.0
20260503013044 42 262 5.2 9.6 0.00 0.01 0.01 75 1015.3
20260503011548 42 256 3.5 7.8 0.00 0.01 0.01 75 1015.4
20260503010043 42 266 3.5 7.0 0.00 0.01 0.01 77 1015.4
20260503004546 42 253 3.5 8.7 0.00 0.02 0.01 76 1015.3
20260503003047 43 258 4.3 10.4 0.00 0.02 0.01 76 1015.2
20260503001545 43 248 4.3 9.6 0.00 0.02 0.01 76 1015.0
20260503000046 43 247 4.3 8.7 0.00 0.02 0.01 76 1014.9
20260502234551 43 240 4.3 10.4 0.00 0.02 0.01 75 1015.0
20260502233036 44 276 4.3 9.6 0.00 0.02 0.01 74 1014.9
20260502231535 45 256 5.2 10.4 0.00 0.02 0.01 71 1014.8
20260502230033 45 279 2.6 6.1 0.00 0.02 0.01 74 1014.6
20260502224533 45 300 2.6 7.0 0.00 0.02 0.01 75 1014.6
20260502223040 45 267 6.1 13.0 0.00 0.02 0.01 72 1014.5
20260502221531 46 260 5.2 11.3 0.00 0.02 0.01 68 1014.5
20260502220031 48 267 3.5 10.4 0.00 0.02 0.01 66 1014.1
20260502214527 49 328 4.3 8.7 0.00 0.02 0.01 63 1013.9
20260502213026 50 262 4.3 8.7 0.00 0.02 0.01 63 1013.8
20260502211533 50 262 5.2 11.3 0.00 0.02 0.01 61 1013.9
20260502210024 50 255 7.0 11.3 0.00 0.02 0.01 62 1013.8
20260502204536 51 263 5.2 13.0 0.00 0.04 0.01 61 1013.6
20260502203032 49 245 5.2 13.0 0.00 0.04 0.01 68 1013.8
20260502201525 51 245 7.0 15.6 0.00 0.04 0.01 66 1013.6
20260502200023 51 245 6.1 12.2 0.00 0.04 0.01 66 1013.7
20260502194527 52 252 6.1 14.8 0.00 0.07 0.01 62 1013.5
20260502193021 51 213 8.7 13.9 0.00 0.07 0.01 63 1013.7
20260502191520 51 240 8.7 13.9 0.00 0.07 0.01 67 1013.4
20260502190021 51 238 7.8 12.2 0.00 0.07 0.01 72 1013.0
20260502184523 50 184 4.3 10.4 0.00 0.18 0.01 73 1012.9
20260502183020 48 169 5.2 11.3 0.00 0.18 0.01 77 1012.9
20260502181519 54 164 0.9 8.7 0.00 0.18 0.01 66 1012.9
20260502163026 53 224 4.3 9.6 0.00 0.35 0.01 73 1013.8
20260502161517 51 221 4.3 8.7 0.00 0.35 0.01 80 1013.7
20260502151502 51 154 0.9 6.1 0.00 0.36 0.01 79 1013.4
20260502123100 49 261 0.9 6.1 0.00 0.76 0.01 90 1012.8
20260502121533 48 252 2.6 5.2 0.00 0.76 0.01 90 1012.7
20260502114527 47 259 0.9 5.2 0.01 0.76 0.01 94 1012.4
20260502113029 46 44 0.0 6.1 0.01 0.76 0.01 94 1012.3
20260502111519 46 226 0.0 5.2 0.01 0.76 0.01 94 1012.2
20260502110019 45 235 0.9 3.5 0.00 0.76 0.00 95 1012.0
20260502104518 44 243 1.7 4.3 0.00 0.76 0.00 95 1012.0
20260502103013 43 279 0.9 3.5 0.00 0.76 0.00 95 1011.8
20260502101512 42 267 0.9 4.3 0.00 0.76 0.00 96 1011.6
20260502091500 39 252 0.0 1.7 0.00 0.76 0.00 96 1010.5
20260502090104 39 257 0.0 1.7 0.00 0.76 0.00 96 1010.4
20260502080107 40 263 0.0 0.9 0.00 0.80 0.00 96 1009.7
20260502070050 42 267 0.0 1.7 0.00 0.88 0.00 96 1009.4
20260502064547 42 269 0.0 2.6 0.00 0.89 0.00 96 1009.4
20260502063035 42 254 0.0 2.6 0.00 0.89 0.00 96 1009.0
20260502061534 43 257 0.0 3.5 0.00 0.89 0.00 96 1009.0
20260502060032 44 257 0.0 2.6 0.00 0.89 0.00 96 1008.8
20260502054533 44 270 0.9 2.6 0.00 0.89 0.00 96 1008.7
20260502053026 44 271 1.7 3.5 0.00 0.89 0.00 97 1008.6
20260502051529 44 262 0.9 4.3 0.00 0.89 0.00 97 1008.5
20260502050034 45 288 0.9 4.3 0.00 0.89 0.00 97 1008.3
20260502044521 45 258 0.0 3.5 0.00 0.89 0.00 97 1008.1
20260502043018 45 259 0.9 3.5 0.00 0.89 0.00 97 1007.9
20260502041516 45 273 0.9 3.5 0.00 0.89 0.00 97 1007.8
20260502040014 44 281 0.9 0.0 0.00 0.00 0.00 97 1007.7
20260502034512 44 345 0.9 4.3 0.00 0.89 0.00 97 1007.6
20260502033009 45 268 0.0 1.7 0.00 0.89 0.00 97 1007.5